Regional Weather Roundup
Issued by NWS

Home | Current Version | Previous Version | Text Only | Print | Product List | Glossary On
Versions: 1 2 3 4 5 6 7 8 9 10 11 12 13 14 15 16 17 18 19 20 21 22 23 24 25 26 27 28 29 30 31 32 33 34 35 36 37 38 39 40 41 42 43 44 45 46 47 48 49 50
000
ASUS44 KBMX 162010
RWRAL

ALABAMA REGIONAL WEATHER ROUNDUP
NATIONAL WEATHER SERVICE BIRMINGHAM AL
300 PM CDT WED AUG 16 2017

NOTE: "FAIR" INDICATES FEW OR NO CLOUDS BELOW 12,000 FEET
WITH NO SIGNIFICANT WEATHER AND/OR OBSTRUCTIONS TO VISIBILITY.

THE REMARK "TC" DENOTES TEMPERATURE IN DEGREES CELSIUS.

ALZ001>011-014-016>018-020-162100-
NORTH ALABAMA

CITY           SKY/WX    TMP DP  RH WIND       PRES   REMARKS
MUSCLE SHOALS  MOSUNNY   89  74  60 SW7       30.01F HX  98
HUNTSVILLE     MOSUNNY   89  76  65 VRB3      30.02F HX 100
DECATUR        PTSUNNY   87  77  72 NE5       30.01F HX  99
HALEYVILLE     PTSUNNY   87  76  69 SW6       30.05F HX  97
GADSDEN        MOSUNNY   90  75  61 VRB5      30.04F HX 100
$$

ALZ012-013-022-023-030>036-040>044-162100-
WEST CENTRAL ALABAMA

CITY           SKY/WX    TMP DP  RH WIND       PRES   REMARKS
TUSCALOOSA     MOSUNNY   89  77  67 W6        30.02F HX 101
DEMOPOLIS        N/A     89  73  58 SE3       30.02F HX  97
$$

ALZ015-024>026-033>036-041>044-162100-
CENTRAL ALABAMA

CITY           SKY/WX    TMP DP  RH WIND       PRES   REMARKS
BIRMINGHAM     PTSUNNY   88  72  58 W5        30.05F HX  94
MONTGOMERY     MOSUNNY   93  71  48 VRB5      30.03F HX 100
SHELBY CO ARPT PTSUNNY   86  75  69 CALM      30.04F HX  95
MAXWELL AFB    SUNNY     90  74  58 NW8       30.02F HX  99
GREENVILLE     PTSUNNY   92  73  53 W5        30.03F HX 100
SELMA          FAIR      90  73  58 CALM      30.02F HX  98
PRATTVILLE     FAIR      88  75  64 CALM      30.03F HX  98
BESSEMER       FAIR      87  75  67 SW7       30.05F HX  96
TALLADEGA      FAIR      90  75  61 MISG      30.04F HX 100
PELL CITY      PTCLDY    90  77  66 S6        30.04F HX 102
MARION         FAIR      90  75  61 SW6       30.02F HX  99
SYLACAUGA      FAIR      90  75  61 CALM      30.05F HX 101
$$

ALZ019-021-028-029-037-038-045>048-162100-
EAST CENTRAL ALABAMA

CITY           SKY/WX    TMP DP  RH WIND       PRES   REMARKS
ANNISTON       SUNNY     88  72  58 S5        30.04F HX  94
ALEXANDER CITY MOSUNNY   87  74  64 SW5       30.05F HX  95
AUBURN         MOSUNNY   89  74  60 N6        30.07F HX  98
$$

ALZ051>064-162100-
SOUTHWEST ALABAMA

CITY           SKY/WX    TMP DP  RH WIND       PRES   REMARKS
MOBILE         LGT RAIN  84  75  74 CALM      30.06S HX  92
BROOKLEY FIELD MOSUNNY   90  79  70 S6        30.05F HX 106
EVERGREEN      PTSUNNY   91  74  57 W3        30.03F HX 100
$$

ALZ049-050-065>069-162100-
SOUTHEAST ALABAMA

CITY           SKY/WX    TMP DP  RH WIND       PRES   REMARKS
DOTHAN         MOSUNNY   91  74  57 NW7       30.07F HX 100
OZARK          MOSUNNY   89  74  59 N5        30.03F HX  98
TROY           MOSUNNY   91  74  57 W6        30.05F HX 100
EUFAULA        FAIR      91  76  61 VRB5      30.02F HX 103
$$



USA.gov is the U.S. government's official web portal to all federal, state and local government web resources and services.